When you browse on this site, cookies collect data to enhance your experience and personalize the content and advertising you see.
Visit our Privacy Policy to learn more. By continuing to use the site, you agree to this use of cookies and data.
  • In Hungary
  • List of Countries
  • For 7 days
  • Water Temperature
  • Weather Map
  • News
  • Weather Widgets
  • user-avatar
    Login

    Hourly Weather Kalinow

    Today, 22 September, Sunday

    Time Temperature Precipitation Wind Pressure Humidity
    00:00 +9°C° 0 mm 2 mps 749 mmHg 90%
    01:00 +10°C° 0 mm 1 mps 749 mmHg 89%
    02:00 +9°C° 0 mm 2 mps 748 mmHg 88%
    03:00 +9°C° 0 mm 2 mps 748 mmHg 88%
    04:00 +8°C° 0 mm 2 mps 748 mmHg 88%
    05:00 +9°C° 0 mm 2 mps 748 mmHg 85%
    06:00 +10°C° 0 mm 2 mps 748 mmHg 81%
    07:00 +12°C° 0 mm 2 mps 748 mmHg 77%
    08:00 +14°C° 0 mm 2 mps 748 mmHg 70%
    09:00 +16°C° 0 mm 3 mps 748 mmHg 62%
    10:00 +18°C° 0 mm 3 mps 748 mmHg 54%
    11:00 +19°C° 0 mm 3 mps 747 mmHg 51%
    12:00 +20°C° 0 mm 3 mps 747 mmHg 47%
    13:00 +21°C° 0 mm 4 mps 747 mmHg 44%
    14:00 +21°C° 0 mm 3 mps 746 mmHg 46%
    15:00 +21°C° 0 mm 3 mps 746 mmHg 48%
    16:00 +21°C° 0 mm 2 mps 745 mmHg 50%
    17:00 +19°C° 0 mm 2 mps 745 mmHg 54%
    18:00 +18°C° 0 mm 1 mps 745 mmHg 59%
    19:00 +15°C° 0 mm 1 mps 745 mmHg 63%
    20:00 +14°C° 0 mm 1 mps 745 mmHg 65%
    21:00 +13°C° 0 mm 0 mps 745 mmHg 67%
    22:00 +12°C° 0 mm 0 mps 746 mmHg 69%
    23:00 +12°C° 0 mm 0 mps 746 mmHg 72%

    Tomorrow, 23 September, Monday

    Time Temperature Precipitation Wind Pressure Humidity
    00:00 +12°C° 0 mm 0 mps 746 mmHg 74%
    01:00 +12°C° 0 mm 1 mps 746 mmHg 76%
    02:00 +12°C° 0 mm 1 mps 746 mmHg 80%
    03:00 +10°C° 0 mm 2 mps 746 mmHg 83%
    04:00 +10°C° 0 mm 3 mps 746 mmHg 87%
    05:00 +10°C° 0 mm 3 mps 746 mmHg 88%
    06:00 +10°C° 0 mm 4 mps 746 mmHg 89%
    07:00 +10°C° 0 mm 5 mps 746 mmHg 89%
    08:00 +12°C° 0 mm 5 mps 746 mmHg 84%
    09:00 +12°C° 0 mm 5 mps 747 mmHg 79%
    10:00 +13°C° 0 mm 5 mps 747 mmHg 74%
    11:00 +14°C° 0 mm 5 mps 747 mmHg 70%
    12:00 +15°C° 0 mm 5 mps 747 mmHg 67%
    13:00 +16°C° 0 mm 5 mps 746 mmHg 63%
    14:00 +16°C° 0 mm 5 mps 746 mmHg 63%
    15:00 +16°C° 0 mm 5 mps 746 mmHg 64%
    16:00 +15°C° 0 mm 5 mps 746 mmHg 64%
    17:00 +14°C° 0 mm 5 mps 746 mmHg 68%
    18:00 +12°C° 0 mm 5 mps 747 mmHg 71%
    19:00 +10°C° 0 mm 5 mps 747 mmHg 75%
    20:00 +10°C° 0 mm 4 mps 747 mmHg 77%
    21:00 +10°C° 0 mm 4 mps 747 mmHg 78%
    22:00 +8°C° 0 mm 4 mps 747 mmHg 79%
    23:00 +9°C° 0 mm 3 mps 747 mmHg 82%

    Day after tomorrow, 24 September, Tuesday

    Time Temperature Precipitation Wind Pressure Humidity
    00:00 +8°C° 0 mm 3 mps 747 mmHg 84%
    01:00 +8°C° 0 mm 3 mps 747 mmHg 86%
    02:00 +8°C° 0 mm 3 mps 747 mmHg 88%
    03:00 +7°C° 0 mm 3 mps 746 mmHg 90%
    04:00 +7°C° 0 mm 3 mps 746 mmHg 92%
    05:00 +7°C° 0 mm 3 mps 746 mmHg 89%
    06:00 +8°C° 0 mm 3 mps 746 mmHg 86%
    07:00 +9°C° 0 mm 3 mps 746 mmHg 83%
    08:00 +11°C° 0 mm 3 mps 746 mmHg 76%
    09:00 +13°C° 0 mm 3 mps 746 mmHg 69%
    10:00 +16°C° 0 mm 3 mps 746 mmHg 62%
    11:00 +17°C° 0 mm 3 mps 746 mmHg 57%
    12:00 +19°C° 0 mm 3 mps 745 mmHg 53%
    13:00 +20°C° 0 mm 3 mps 745 mmHg 49%
    14:00 +20°C° 0 mm 3 mps 744 mmHg 50%
    15:00 +19°C° 0 mm 3 mps 744 mmHg 51%
    16:00 +19°C° 0 mm 3 mps 744 mmHg 53%
    17:00 +17°C° 0 mm 3 mps 744 mmHg 58%
    18:00 +14°C° 0 mm 3 mps 744 mmHg 64%
    19:00 +12°C° 0 mm 3 mps 743 mmHg 69%
    20:00 +12°C° 0 mm 3 mps 743 mmHg 72%
    21:00 +11°C° 0 mm 3 mps 743 mmHg 75%
    22:00 +11°C° 0 mm 3 mps 743 mmHg 77%
    23:00 +11°C° 0 mm 3 mps 743 mmHg 78%

    25 September, Wednesday

    Time Temperature Precipitation Wind Pressure Humidity
    00:00 +11°C° 0 mm 3 mps 742 mmHg 79%
    01:00 +10°C° 0 mm 3 mps 742 mmHg 79%
    02:00 +11°C° 0 mm 3 mps 742 mmHg 78%
    03:00 +11°C° 0 mm 3 mps 741 mmHg 77%
    04:00 +11°C° 0 mm 3 mps 741 mmHg 75%
    05:00 +11°C° 0 mm 3 mps 741 mmHg 74%
    06:00 +12°C° 0 mm 3 mps 741 mmHg 73%
    07:00 +12°C° 0 mm 3 mps 740 mmHg 72%
    08:00 +13°C° 0 mm 3 mps 740 mmHg 69%
    09:00 +14°C° 0 mm 3 mps 740 mmHg 66%
    10:00 +16°C° 0 mm 3 mps 740 mmHg 63%
    11:00 +16°C° 0.1 mm 3 mps 740 mmHg 68%
    12:00 +14°C° 0.1 mm 3 mps 739 mmHg 73%
    13:00 +14°C° 0.1 mm 3 mps 739 mmHg 78%
    14:00 +14°C° 0.2 mm 3 mps 739 mmHg 80%
    15:00 +14°C° 0.2 mm 4 mps 739 mmHg 83%
    16:00 +14°C° 0.2 mm 4 mps 739 mmHg 85%
    17:00 +14°C° 0.1 mm 4 mps 739 mmHg 87%
    18:00 +13°C° 0.1 mm 4 mps 739 mmHg 90%
    19:00 +13°C° 0.1 mm 3 mps 739 mmHg 92%
    20:00 +13°C° 0 mm 3 mps 739 mmHg 90%
    21:00 +13°C° 0 mm 3 mps 739 mmHg 89%
    22:00 +13°C° 0 mm 3 mps 739 mmHg 87%
    23:00 +13°C° 0 mm 3 mps 739 mmHg 89%

    26 September, Thursday

    Time Temperature Precipitation Wind Pressure Humidity
    00:00 +13°C° 0 mm 3 mps 739 mmHg 90%
    01:00 +12°C° 0 mm 3 mps 739 mmHg 91%
    02:00 +12°C° 0.1 mm 3 mps 739 mmHg 91%
    03:00 +12°C° 0.1 mm 3 mps 739 mmHg 91%
    04:00 +13°C° 0.1 mm 3 mps 739 mmHg 91%
    05:00 +13°C° 0.1 mm 4 mps 740 mmHg 91%
    06:00 +13°C° 0.1 mm 4 mps 740 mmHg 91%
    07:00 +13°C° 0.1 mm 4 mps 740 mmHg 91%
    08:00 +14°C° 0 mm 4 mps 740 mmHg 87%
    09:00 +14°C° 0 mm 4 mps 741 mmHg 84%
    10:00 +15°C° 0 mm 4 mps 741 mmHg 81%
    11:00 +15°C° 0.2 mm 5 mps 741 mmHg 81%
    12:00 +15°C° 0.2 mm 5 mps 741 mmHg 80%
    13:00 +15°C° 0.2 mm 5 mps 741 mmHg 80%
    14:00 +15°C° 0 mm 5 mps 741 mmHg 81%
    15:00 +15°C° 0 mm 4 mps 741 mmHg 82%
    16:00 +15°C° 0 mm 4 mps 741 mmHg 83%
    17:00 +14°C° 0 mm 4 mps 742 mmHg 87%
    18:00 +13°C° 0 mm 3 mps 742 mmHg 90%
    19:00 +12°C° 0 mm 3 mps 742 mmHg 94%
    20:00 +12°C° 0 mm 3 mps 742 mmHg 94%
    21:00 +11°C° 0 mm 3 mps 743 mmHg 95%
    22:00 +11°C° 0 mm 3 mps 743 mmHg 95%
    23:00 +11°C° 0 mm 3 mps 743 mmHg 95%

    27 September, Friday

    Time Temperature Precipitation Wind Pressure Humidity
    00:00 +11°C° 0 mm 3 mps 743 mmHg 95%
    01:00 +10°C° 0 mm 3 mps 743 mmHg 95%
    02:00 +10°C° 0 mm 3 mps 743 mmHg 95%
    03:00 +10°C° 0 mm 2 mps 743 mmHg 95%
    04:00 +10°C° 0 mm 2 mps 743 mmHg 95%
    05:00 +10°C° 0 mm 2 mps 743 mmHg 94%
    06:00 +12°C° 0 mm 2 mps 743 mmHg 93%
    07:00 +12°C° 0 mm 1 mps 744 mmHg 91%
    08:00 +13°C° 0.2 mm 1 mps 744 mmHg 90%
    09:00 +14°C° 0.2 mm 1 mps 744 mmHg 88%
    10:00 +14°C° 0.2 mm 1 mps 745 mmHg 86%
    11:00 +15°C° 0.1 mm 1 mps 745 mmHg 81%
    12:00 +16°C° 0.1 mm 1 mps 744 mmHg 76%
    13:00 +18°C° 0.1 mm 1 mps 744 mmHg 71%
    14:00 +18°C° 0.1 mm 1 mps 744 mmHg 75%
    15:00 +18°C° 0.1 mm 1 mps 744 mmHg 78%
    16:00 +16°C° 0.1 mm 1 mps 744 mmHg 82%
    17:00 +16°C° 0 mm 1 mps 745 mmHg 84%
    18:00 +15°C° 0 mm 1 mps 745 mmHg 86%
    19:00 +15°C° 0 mm 2 mps 745 mmHg 88%
    20:00 +15°C° 0.2 mm 2 mps 745 mmHg 90%
    21:00 +14°C° 0.2 mm 2 mps 745 mmHg 92%
    22:00 +14°C° 0.2 mm 2 mps 745 mmHg 94%
    23:00 +14°C° 0.2 mm 2 mps 745 mmHg 94%
    Show more